Vorticity
6 6 5 4 4 8 12 14 17 14 9 6 3 6 8 7 6 8 12 5 1 8 9 1 0 13 18 11 6 3 6 8 -0 -3 0 4 5 4 6 5 3 4 6 9 10 8 13 17 14 15 18 15 12 11 10 6 6 10 10 8 10 8 6 6 5 4 3 4 5 5 6 6 7 7 7 7 8 7 6 6 6 5 5 5 4 4
6 6 8 8 5 6 9 10 14 15 13 8 4 4 6 8 8 6 13 17 5 -3 -2 -8 -5 19 26 10 3 5 5 -0 -6 0 7 4 5 7 4 3 3 3 5 8 8 7 11 17 16 13 15 19 16 11 11 8 5 10 10 8 10 7 6 6 5 4 4 4 5 5 6 7 8 8 8 9 8 7 7 6 5 5 5 4 4 4
5 6 9 9 7 5 7 8 9 13 14 9 5 3 4 8 5 6 20 25 11 -0 1 -0 -0 11 17 10 6 4 3 1 -2 -0 6 5 3 5 3 3 6 4 3 7 7 6 9 15 17 13 13 18 17 13 12 9 6 10 11 8 8 6 5 6 4 4 4 4 5 5 7 8 8 8 8 8 8 7 6 6 5 5 5 4 4 4
6 8 11 10 10 8 6 8 8 11 13 10 7 3 5 6 1 8 18 13 3 -2 0 4 1 -2 5 11 7 2 2 5 7 4 2 2 1 5 5 1 5 6 3 5 6 6 9 16 18 13 11 14 16 15 13 9 8 10 10 8 8 6 4 4 4 4 4 4 4 4 7 7 7 8 8 7 8 7 6 5 6 5 5 4 4 4
8 5 8 9 9 9 7 7 8 9 11 14 11 5 4 7 7 7 6 6 8 4 2 4 -2 -5 12 21 10 1 2 3 7 8 6 4 1 6 9 2 4 6 4 4 6 7 7 13 20 15 11 12 13 16 15 9 8 10 9 7 7 5 4 4 4 4 4 4 5 4 6 7 7 7 7 7 7 7 6 5 6 5 4 4 3 4
12 6 5 6 6 8 6 5 6 8 10 13 14 10 5 7 10 6 -3 3 13 8 3 5 6 4 11 24 22 7 -1 1 3 4 7 6 -0 3 8 5 3 5 6 5 5 7 6 11 19 15 10 10 11 16 17 10 7 11 9 6 7 5 4 4 4 4 5 4 5 5 5 5 6 7 6 6 7 7 6 7 7 5 4 3 3 4
11 9 5 4 7 8 6 6 5 5 8 10 16 18 9 5 5 3 -2 -3 2 4 1 -2 1 3 1 7 18 18 9 1 -1 -0 2 5 4 6 10 9 5 2 3 6 6 5 6 11 16 14 10 9 13 17 17 11 7 11 10 6 6 5 4 5 4 4 5 5 5 5 5 5 5 7 7 6 7 7 6 6 6 3 3 3 3 4
12 10 6 3 5 6 6 9 8 6 5 8 18 20 11 6 3 7 8 0 -2 6 10 0 -11 0 13 -1 -7 17 26 9 3 2 -0 7 12 12 15 13 5 1 1 5 9 7 7 12 13 14 12 11 15 18 16 12 6 9 13 8 4 6 5 4 4 4 5 5 6 5 4 5 6 6 7 8 8 7 7 6 4 3 3 4 4 5
13 11 12 9 5 4 6 10 12 9 6 7 14 17 15 9 7 14 14 0 -3 2 10 11 -1 1 12 -4 -12 12 20 11 12 8 -1 3 6 6 14 13 2 2 5 5 7 7 11 13 10 11 15 15 17 16 14 13 7 6 12 11 6 5 5 4 3 4 6 6 6 6 4 4 5 6 7 9 8 6 6 6 5 4 5 5 6 6
5 9 13 13 7 6 7 9 10 7 6 8 10 16 18 11 8 14 11 -0 -5 -4 1 9 9 6 2 1 12 17 7 6 13 9 1 1 2 7 16 15 6 2 -0 0 4 6 9 12 9 11 19 20 16 13 12 12 8 5 8 12 10 6 5 5 4 4 6 6 5 6 6 4 4 6 7 8 8 7 6 6 6 6 7 7 7 5
3 6 8 9 8 8 7 7 8 7 7 8 8 13 15 13 10 9 11 8 -4 -11 -8 -4 5 11 5 6 16 12 3 7 13 10 7 2 0 8 16 15 15 13 3 -3 -0 2 7 12 11 12 18 19 15 13 12 11 8 6 7 10 11 9 8 6 6 7 6 6 7 7 6 6 5 6 8 8 7 8 7 7 9 9 9 8 6 4
4 1 1 7 9 8 7 7 7 7 7 7 8 10 11 15 16 13 13 10 -4 -10 -10 -9 -3 2 3 2 2 3 6 16 26 23 14 7 1 1 5 9 19 26 16 2 -0 2 6 11 11 13 17 17 14 13 12 10 10 9 8 7 9 9 9 8 7 7 7 7 8 8 7 6 7 7 8 7 7 9 10 9 9 9 7 7 6 5
7 4 3 5 7 7 6 5 6 6 7 6 5 8 7 6 8 12 14 7 2 1 0 -0 -7 -13 -7 -4 -5 3 5 7 19 20 12 16 18 6 -0 8 21 25 15 5 3 2 3 8 10 12 15 14 12 11 11 11 11 12 12 8 6 5 5 7 8 7 9 9 8 8 9 7 7 8 7 6 6 9 10 9 8 8 7 7 8 8
5 6 5 2 3 8 7 5 4 3 5 6 3 2 3 1 1 7 11 11 12 8 9 7 -10 -14 -8 -12 -2 18 11 -1 4 9 7 12 14 2 3 21 25 11 3 4 4 3 5 8 8 10 13 13 11 9 9 10 8 11 14 11 5 4 4 6 9 10 10 10 9 9 10 9 9 9 7 5 7 9 10 9 9 8 7 8 9 11
5 2 3 4 4 9 8 5 6 6 4 5 6 5 4 4 5 9 11 16 18 15 20 9 -14 -1 8 -7 4 11 -5 -4 5 5 5 2 -1 -3 8 22 6 -17 -10 2 4 5 6 7 8 11 12 13 13 11 9 10 10 9 12 12 7 5 5 6 9 11 10 9 9 10 11 11 10 8 7 5 6 8 10 8 7 8 8 7 8 10
8 3 6 9 7 9 12 8 5 7 5 5 5 3 4 7 8 10 10 14 17 15 20 6 -12 8 13 -1 9 -0 -19 -7 -1 -2 6 4 5 13 15 12 -1 -7 2 6 8 9 5 7 10 10 11 13 14 13 11 10 10 9 9 10 9 6 5 4 5 6 9 9 9 11 12 12 10 9 7 6 7 10 11 8 5 6 7 6 5 5
10 8 5 7 7 6 10 12 9 6 5 5 3 1 6 12 12 10 6 8 13 11 14 12 8 19 15 7 20 16 8 12 -1 -7 1 -2 5 16 11 10 16 18 13 11 17 16 7 5 6 6 10 13 10 11 12 10 7 8 9 8 7 8 7 6 6 5 7 8 9 12 12 11 12 10 7 7 10 11 10 8 6 5 6 7 5 4
13 11 6 3 5 8 8 10 12 10 6 2 0 3 10 12 7 6 5 4 6 6 11 16 15 21 22 20 25 23 25 31 21 15 13 1 1 6 6 13 17 8 3 13 20 15 8 5 3 5 10 12 10 11 16 14 7 6 8 9 8 8 8 9 10 9 7 8 10 11 10 10 10 8 7 7 8 8 7 6 7 5 5 7 7 7
11 13 27 19 1 3 10 9 8 8 6 3 3 5 8 9 5 1 2 2 4 4 8 11 10 15 20 21 25 25 23 23 22 26 29 16 1 -3 2 11 11 -3 -5 9 14 9 10 9 5 5 7 11 9 9 15 16 10 7 8 10 10 8 9 9 11 12 11 10 10 9 8 8 8 7 7 7 5 5 5 4 5 5 4 6 7 7
7 -7 20 38 21 10 11 8 6 10 11 5 5 9 8 9 10 5 2 5 8 7 8 14 15 15 20 21 20 17 15 18 20 21 23 21 10 -1 -3 3 7 2 0 12 18 15 13 10 8 6 5 10 8 4 12 16 11 9 9 11 11 9 10 10 11 13 13 13 11 9 8 6 7 8 7 7 6 4 6 6 5 6 6 6 6 6
10 -14 -13 13 28 26 17 8 1 4 13 8 -2 2 5 6 9 7 7 9 8 5 6 12 12 6 12 19 9 1 7 15 23 24 14 12 16 8 2 7 9 7 13 22 23 18 13 7 7 7 6 13 14 6 7 13 12 10 10 12 11 10 10 10 11 11 11 11 10 7 7 7 7 9 7 6 7 7 7 8 6 7 8 6 7 8
16 11 -6 -9 10 25 22 21 13 0 6 11 2 -1 -1 -0 4 6 8 10 9 5 -3 2 15 13 13 18 4 -0 16 16 16 28 18 6 12 12 9 11 10 12 23 23 16 12 12 8 7 8 10 14 18 13 9 13 14 12 13 13 10 9 10 9 8 8 7 6 7 6 6 7 7 7 7 5 6 7 6 6 7 7 9 9 9 8
6 9 6 -3 2 12 6 14 28 21 16 16 12 10 5 0 1 4 8 9 9 8 -4 -9 6 10 8 17 6 -5 13 19 12 20 20 11 13 12 10 11 9 13 17 9 5 3 -1 2 6 10 14 14 15 14 12 11 12 14 17 13 10 10 8 8 7 7 7 5 5 7 6 7 8 7 8 9 7 7 6 5 6 7 8 9 8 8
6 2 5 0 0 12 8 4 12 18 26 27 16 12 12 8 4 3 8 13 10 10 6 -6 -7 0 10 26 25 8 7 14 12 13 14 12 10 9 12 12 1 -0 1 -0 10 11 -1 -0 6 9 13 13 13 14 12 9 8 14 19 15 11 10 7 7 6 4 6 6 5 8 7 6 9 8 9 10 8 7 7 5 7 9 10 9 8 8
11 5 6 4 -0 12 21 14 1 -2 14 25 20 14 13 13 12 8 6 11 13 11 10 1 -13 -5 16 23 23 12 -4 -5 5 12 13 11 10 15 19 12 3 3 4 6 17 15 2 -2 2 8 12 11 11 12 10 8 4 7 17 16 10 9 7 6 7 5 6 6 6 8 8 7 8 9 9 9 8 7 6 7 9 10 11 9 7 7
11 2 2 4 -0 3 11 11 3 -2 6 17 21 20 16 9 9 15 9 3 11 12 12 13 -4 -12 1 7 11 12 -5 -14 -3 9 18 17 11 15 18 13 12 11 10 22 33 29 18 10 5 6 11 11 7 4 3 4 2 5 15 16 9 9 8 6 7 8 7 7 8 8 8 9 8 8 9 8 8 7 6 8 9 9 10 8 6 6
14 3 3 0 -5 -1 4 6 7 3 1 12 23 23 20 8 -2 10 18 7 8 12 10 20 16 -3 -9 -10 -4 5 1 -4 -2 -0 11 16 6 4 10 15 12 3 10 33 36 24 20 14 7 8 13 12 5 2 3 4 6 11 15 14 11 8 8 8 7 8 9 9 9 8 7 7 5 5 6 5 5 6 7 8 9 8 8 7 6 6
14 6 7 1 -5 -3 -4 1 17 18 2 2 18 22 20 14 -6 -5 15 14 10 13 9 16 22 10 1 -4 -11 -8 -6 -5 -1 -0 8 22 22 16 15 16 8 -4 6 22 13 3 7 7 3 5 12 15 8 4 7 7 9 15 14 12 14 9 5 7 7 8 10 9 8 7 5 4 4 3 3 3 3 5 7 7 6 6 6 6 6 6
13 7 5 2 -1 -5 -11 -5 16 26 9 -3 17 29 22 18 5 -10 2 12 12 13 7 11 22 12 2 6 7 7 2 -4 1 9 18 28 29 21 12 8 5 -0 1 9 10 12 18 19 15 6 4 14 14 8 10 10 9 12 13 11 13 11 7 7 7 8 11 11 9 9 7 3 3 2 2 2 3 4 6 5 5 5 4 5 7 7
14 11 3 2 -1 -12 -12 2 11 16 11 -0 19 38 21 16 19 1 -5 7 14 16 8 12 28 18 -2 2 12 15 11 6 8 15 23 26 17 12 9 -0 -0 4 -0 -1 5 5 4 9 13 9 7 13 14 9 8 9 7 6 9 10 8 9 9 9 9 10 12 14 12 10 10 7 5 4 2 2 1 1 4 5 5 6 4 5 7 8
14 15 3 3 3 -14 -10 15 13 7 9 -3 10 31 13 7 25 12 -6 4 13 12 7 11 24 19 7 7 11 14 15 12 10 12 19 16 -0 -4 6 3 1 8 6 -1 1 3 6 7 6 8 14 14 11 9 5 4 5 4 6 9 7 6 7 7 8 8 8 10 9 8 11 10 9 7 5 4 3 3 5 6 6 7 5 5 7 8
11 19 6 3 4 -14 -8 19 12 -0 4 -4 3 27 11 -1 22 18 -6 -1 12 11 7 9 15 12 8 9 8 14 22 15 7 11 13 4 -4 2 12 11 6 8 8 2 -0 6 15 15 8 7 12 12 8 7 5 3 5 6 7 10 8 4 5 5 6 7 6 7 8 8 10 12 11 11 9 8 8 8 9 9 7 7 6 5 8 8
8 17 13 6 -1 -15 -8 18 17 5 2 -7 2 28 16 -4 13 23 7 -3 2 11 9 7 14 10 -1 3 11 14 17 13 7 12 11 1 6 17 10 1 0 -2 -3 -1 1 12 19 14 9 5 4 9 12 9 7 4 4 7 7 7 7 5 5 5 5 5 5 6 6 6 8 13 14 14 14 14 14 13 13 12 9 8 7 6 7 8
5 12 21 10 -9 -15 -7 7 13 8 -1 -9 6 24 13 -1 6 16 18 7 -4 5 10 1 8 14 -1 1 19 16 6 9 10 6 5 2 5 6 -5 -4 9 2 -6 -2 -1 2 9 10 14 14 8 9 11 6 4 2 2 5 5 5 6 4 3 4 4 3 3 3 4 3 4 8 12 15 15 15 17 18 18 16 11 8 7 7 7 8
6 4 23 18 -9 -22 -9 5 6 2 -4 -4 15 21 3 -0 9 8 14 12 -7 -2 13 3 -2 9 5 1 13 11 -2 2 6 0 1 -0 -4 -3 -4 4 17 8 -2 9 10 0 -1 3 11 17 17 16 14 8 5 5 4 6 7 6 5 2 1 2 2 3 3 1 2 3 3 4 8 16 17 14 15 19 18 16 13 9 9 8 7 9
14 1 11 23 6 -27 -22 10 14 4 2 1 13 18 -2 -2 13 11 10 11 -4 -7 9 12 3 4 10 9 7 3 -2 -3 -2 -4 -0 -1 -7 -1 7 8 14 12 4 10 17 12 5 3 3 7 10 14 16 13 10 8 7 6 5 5 5 4 3 3 2 4 3 0 -0 0 2 3 6 15 22 16 14 17 16 14 12 10 9 8 8 10
18 9 2 17 23 -14 -31 2 22 20 14 6 10 9 -6 2 19 15 12 13 3 -8 -8 7 18 9 6 14 10 3 2 -0 -4 -6 -3 0 -1 1 6 5 7 12 9 7 11 13 12 11 11 11 10 12 14 14 11 8 6 5 5 6 8 9 9 6 4 4 1 0 2 0 1 3 3 11 23 18 11 13 14 11 9 7 7 8 10 10
23 18 5 6 21 2 -27 -22 8 33 24 4 11 5 -11 8 19 5 14 24 11 -3 -11 -2 19 15 2 8 10 7 6 1 -2 1 2 4 6 4 4 5 5 7 10 8 8 11 12 11 10 11 10 9 9 9 10 8 5 4 4 3 2 4 8 9 8 7 4 1 3 2 1 2 1 9 25 22 11 10 9 7 8 9 9 11 11 9
33 28 14 6 11 10 -10 -37 -25 27 39 7 2 -3 -10 17 17 -13 6 32 14 -1 -4 -7 4 11 5 6 6 2 4 -0 -3 5 10 11 13 7 0 2 5 6 8 9 9 9 9 8 9 9 6 4 5 7 9 10 8 7 6 5 4 2 4 6 8 10 9 4 4 3 1 1 1 8 22 24 15 14 15 12 12 13 11 10 8 7
36 39 22 12 10 4 -1 -24 -39 -0 37 21 -5 -15 -6 24 16 -18 1 34 17 -2 -2 -7 -4 4 5 8 9 -1 -5 2 5 1 1 5 8 7 4 5 7 7 6 6 7 9 8 6 7 6 6 9 11 8 6 6 9 12 12 12 13 10 6 7 8 12 11 6 5 5 1 0 1 4 13 15 10 10 13 13 12 11 9 8 7 6
25 43 28 17 20 6 -7 -5 -14 -15 14 27 -0 -19 4 31 12 -20 -0 36 26 2 -1 -1 -1 5 5 4 9 1 -9 1 12 5 -0 2 -1 -0 6 8 6 6 6 6 6 7 9 9 8 7 8 10 9 7 8 8 8 12 15 15 17 16 14 13 13 14 14 9 6 6 3 1 1 4 9 9 5 5 5 5 6 6 6 7 7 6
12 33 34 17 25 22 -8 -8 6 -9 -4 24 7 -22 -2 28 11 -21 -9 31 35 9 2 8 3 -0 1 -2 -1 -0 -6 0 9 4 0 5 4 3 7 7 4 2 4 7 7 6 7 9 11 10 7 6 7 8 11 10 8 11 14 14 16 18 20 20 18 16 16 14 12 10 6 1 1 5 8 6 5 6 4 3 3 2 3 5 5 6
10 14 32 22 22 33 7 -7 12 5 -9 8 6 -19 -13 12 13 -9 -17 11 35 17 -1 7 9 -1 -2 -1 -3 -5 -5 2 12 9 3 5 9 11 9 6 5 3 3 7 8 6 7 7 8 10 7 6 10 11 9 8 8 9 8 7 9 13 16 19 19 17 16 15 14 14 11 6 5 9 9 7 7 6 4 5 5 2 2 3 3 5
20 4 14 20 23 34 20 0 13 24 13 8 3 -2 1 3 8 8 -9 -9 22 29 8 1 6 5 3 1 1 1 -5 -8 -1 8 13 15 16 13 8 6 5 2 3 6 4 4 8 6 3 5 7 7 8 9 9 8 6 4 3 4 7 9 10 11 14 15 15 13 12 14 14 11 10 11 10 10 10 6 3 3 5 5 5 4 4 5
27 18 8 10 18 28 24 7 -1 10 25 25 12 13 23 9 -7 3 6 -8 -2 18 22 12 4 5 7 3 2 5 1 -6 -5 2 6 10 12 10 9 8 5 2 3 4 1 2 5 3 1 3 5 6 7 8 8 8 6 5 5 6 7 6 5 6 7 9 11 11 10 11 12 11 11 11 10 12 12 9 4 2 3 5 5 5 6 6
16 20 12 13 19 22 26 24 7 -4 5 12 2 4 24 24 -2 -13 -0 5 -1 -2 9 15 8 2 3 3 1 1 3 8 12 8 0 0 5 8 10 10 5 1 -0 -2 -3 -0 2 -1 -2 -0 2 3 5 5 5 6 7 7 7 6 6 3 3 4 4 4 6 8 9 9 9 9 10 10 11 12 12 11 8 5 4 4 4 5 6 5
12 6 0 8 21 24 24 25 19 8 4 2 -5 -8 9 28 19 -8 -20 -9 3 0 -3 4 9 5 0 -2 -3 -3 -2 -7 -12 -12 -7 1 5 8 12 14 9 2 -2 -4 -5 -3 0 -1 -4 -3 0 4 5 5 4 3 5 6 6 6 5 3 2 3 3 4 5 5 5 7 7 7 8 8 10 10 10 12 11 9 7 6 4 4 4 4
26 15 1 -3 5 15 23 24 18 11 14 22 19 8 11 28 35 23 2 -11 -12 -9 -8 -5 1 5 6 2 -4 -4 -3 -13 -24 -18 -3 5 6 9 13 16 14 9 4 2 2 0 -1 -0 -1 -2 1 5 6 6 5 4 4 5 5 5 4 5 5 4 4 6 7 6 5 5 5 6 6 7 8 9 9 10 10 9 9 8 6 5 5 5
31 31 25 13 -2 -6 5 20 24 12 10 28 34 15 7 19 28 28 29 24 11 -1 -6 -5 -4 -3 2 7 4 -1 -4 -11 -15 -6 7 9 7 9 10 9 13 16 12 8 9 8 5 2 2 3 5 6 6 6 5 5 5 4 5 6 6 5 5 6 6 7 7 7 7 5 4 5 5 4 6 8 8 8 8 8 8 7 7 7 7 6
22 23 30 30 16 -2 -12 -1 23 22 1 3 24 20 4 7 16 17 21 35 41 30 13 5 3 -3 -7 -4 1 0 -5 -9 -10 -4 4 7 7 10 12 8 7 10 13 11 10 10 9 8 5 4 4 5 5 5 5 4 4 3 2 2 3 4 4 5 6 7 7 7 7 7 7 6 5 5 5 6 7 7 6 7 6 6 8 9 7 7
14 15 26 32 29 22 5 -7 9 25 5 -19 -6 16 12 2 5 10 8 15 33 42 34 23 17 12 3 -6 -8 -6 -4 0 4 3 2 2 2 4 11 14 11 8 9 10 10 9 9 10 9 7 5 5 5 5 4 4 4 3 1 0 1 3 4 4 5 6 7 8 7 7 8 7 7 7 8 7 7 6 5 6 5 5 6 6 6 7
Height
5837 5837 5840 5845 5847 5847 5848 5850 5852 5854 5855 5857 5858 5860 5862 5865 5867 5870 5872 5873 5875 5877 5878 5880 5881 5884 5885 5885 5886 5886 5885 5886 5888 5889 5890 5891 5892 5894 5895 5895 5895 5896 5897 5898 5898 5899 5899 5899 5900 5901 5903 5904 5906 5908 5910 5911 5912 5914 5915 5917 5919 5921 5923 5925 5927 5928 5929 5931 5932 5933 5934 5936 5937 5939 5940 5941 5942 5943 5944 5945 5946 5947 5947 5948 5948 5948
5831 5834 5841 5844 5844 5844 5845 5846 5848 5849 5851 5853 5855 5857 5860 5862 5865 5868 5871 5872 5875 5876 5877 5879 5880 5881 5883 5883 5884 5885 5883 5883 5886 5888 5889 5891 5892 5892 5893 5894 5894 5894 5895 5897 5897 5898 5898 5899 5900 5900 5901 5903 5905 5907 5909 5911 5912 5913 5915 5916 5918 5920 5922 5924 5926 5928 5929 5930 5931 5933 5934 5936 5937 5939 5940 5942 5943 5943 5945 5945 5946 5947 5948 5948 5948 5948
5828 5835 5841 5840 5840 5841 5841 5843 5844 5846 5848 5850 5852 5854 5856 5859 5863 5866 5869 5871 5874 5877 5876 5878 5879 5880 5882 5882 5882 5883 5882 5882 5885 5887 5888 5890 5892 5892 5891 5892 5892 5893 5894 5895 5896 5897 5898 5898 5899 5900 5900 5902 5904 5906 5908 5910 5912 5913 5914 5916 5918 5919 5921 5923 5926 5927 5929 5930 5931 5933 5935 5936 5937 5939 5940 5941 5943 5944 5945 5946 5947 5947 5948 5949 5949 5949
5829 5837 5838 5835 5836 5837 5838 5840 5841 5842 5844 5846 5848 5851 5854 5858 5860 5863 5868 5870 5872 5876 5877 5877 5878 5878 5880 5881 5880 5880 5880 5881 5884 5885 5885 5887 5889 5890 5890 5890 5891 5892 5893 5894 5895 5896 5897 5898 5899 5899 5900 5901 5903 5906 5908 5910 5912 5913 5914 5916 5917 5919 5920 5922 5925 5927 5929 5930 5932 5933 5935 5936 5938 5939 5940 5941 5942 5944 5945 5946 5947 5948 5948 5949 5949 5950
5828 5833 5830 5829 5832 5834 5835 5837 5838 5839 5841 5843 5846 5848 5852 5856 5858 5861 5867 5871 5871 5873 5876 5877 5877 5876 5878 5879 5878 5878 5878 5879 5881 5883 5883 5885 5887 5888 5889 5890 5890 5892 5893 5893 5894 5895 5896 5897 5898 5899 5899 5900 5902 5905 5907 5909 5912 5912 5913 5915 5916 5918 5920 5921 5924 5926 5929 5930 5932 5933 5935 5936 5937 5939 5940 5941 5942 5944 5945 5946 5947 5948 5948 5949 5949 5950
5825 5827 5825 5825 5828 5830 5832 5833 5836 5838 5839 5841 5844 5847 5851 5854 5856 5858 5863 5870 5871 5871 5872 5874 5874 5873 5874 5876 5876 5876 5875 5875 5878 5880 5882 5885 5886 5886 5888 5889 5890 5891 5892 5892 5893 5894 5895 5897 5898 5899 5899 5900 5901 5904 5906 5908 5911 5912 5913 5914 5916 5918 5919 5921 5923 5926 5928 5930 5931 5933 5934 5935 5936 5938 5939 5941 5943 5944 5945 5947 5947 5948 5948 5949 5949 5950
5819 5821 5820 5822 5825 5827 5829 5830 5833 5835 5836 5839 5842 5846 5849 5850 5853 5855 5858 5864 5868 5869 5870 5870 5872 5871 5871 5873 5874 5875 5874 5873 5874 5876 5878 5882 5886 5886 5887 5888 5889 5890 5891 5892 5892 5893 5894 5896 5897 5898 5898 5899 5900 5902 5904 5907 5910 5912 5913 5914 5916 5918 5919 5921 5924 5926 5928 5930 5931 5932 5933 5935 5936 5938 5940 5942 5943 5945 5946 5946 5947 5948 5948 5949 5949 5950
5815 5816 5816 5819 5822 5823 5825 5828 5832 5834 5835 5837 5841 5844 5846 5847 5850 5852 5854 5858 5863 5867 5868 5867 5869 5870 5869 5869 5872 5873 5873 5872 5872 5873 5873 5876 5881 5884 5886 5887 5889 5890 5890 5891 5892 5892 5893 5894 5895 5896 5897 5898 5899 5901 5903 5906 5909 5912 5913 5914 5916 5917 5919 5921 5924 5926 5928 5929 5930 5932 5933 5934 5936 5938 5941 5942 5944 5944 5945 5946 5947 5948 5948 5949 5950 5950
5812 5813 5814 5816 5819 5820 5823 5828 5830 5831 5832 5835 5839 5841 5843 5845 5848 5850 5851 5854 5858 5861 5863 5864 5866 5866 5866 5867 5869 5870 5870 5870 5870 5871 5870 5871 5875 5879 5883 5886 5888 5889 5890 5891 5892 5892 5892 5893 5893 5895 5896 5897 5898 5900 5902 5905 5908 5910 5913 5914 5915 5917 5919 5921 5924 5925 5927 5929 5930 5931 5933 5934 5936 5939 5941 5942 5943 5944 5945 5946 5947 5948 5949 5950 5950 5951
5807 5808 5810 5812 5814 5817 5821 5825 5827 5827 5829 5833 5836 5837 5840 5842 5845 5848 5848 5850 5853 5853 5855 5860 5861 5861 5862 5865 5867 5866 5866 5868 5869 5870 5870 5869 5872 5876 5880 5884 5886 5887 5888 5889 5891 5891 5891 5891 5892 5893 5895 5897 5898 5900 5902 5904 5907 5910 5912 5914 5915 5917 5919 5921 5923 5925 5927 5928 5930 5931 5933 5934 5936 5939 5940 5942 5943 5944 5945 5946 5948 5949 5950 5950 5951 5951
5801 5803 5805 5806 5810 5814 5818 5821 5823 5824 5827 5830 5832 5833 5836 5838 5841 5845 5846 5848 5848 5845 5848 5854 5857 5858 5859 5862 5864 5863 5863 5867 5868 5869 5869 5867 5869 5873 5876 5880 5882 5884 5886 5888 5889 5890 5889 5890 5891 5893 5895 5897 5898 5900 5902 5904 5906 5909 5911 5913 5915 5916 5918 5920 5922 5924 5926 5928 5929 5931 5932 5934 5936 5938 5940 5942 5943 5944 5946 5947 5948 5949 5950 5950 5951 5951
5793 5796 5798 5802 5806 5810 5814 5816 5818 5820 5823 5826 5827 5829 5831 5834 5837 5840 5843 5844 5840 5839 5845 5851 5853 5854 5854 5857 5861 5861 5862 5865 5866 5867 5867 5865 5866 5870 5874 5876 5879 5882 5885 5886 5887 5888 5888 5889 5891 5892 5894 5895 5897 5899 5901 5904 5906 5908 5910 5912 5914 5915 5917 5919 5921 5923 5925 5927 5929 5930 5932 5934 5936 5938 5940 5941 5943 5945 5946 5948 5949 5949 5950 5951 5951 5952
5787 5791 5795 5798 5801 5805 5808 5811 5813 5815 5818 5820 5822 5824 5827 5829 5832 5833 5836 5837 5835 5839 5846 5849 5850 5849 5848 5853 5857 5858 5859 5862 5864 5865 5864 5863 5865 5868 5871 5875 5878 5881 5883 5884 5885 5886 5887 5888 5890 5891 5893 5894 5896 5898 5900 5902 5904 5906 5909 5911 5913 5914 5916 5918 5920 5922 5924 5926 5928 5930 5932 5934 5936 5938 5939 5941 5943 5945 5946 5948 5949 5949 5950 5951 5951 5952
5784 5788 5790 5793 5797 5800 5803 5805 5807 5810 5814 5816 5818 5821 5824 5825 5827 5828 5831 5833 5834 5839 5845 5849 5848 5845 5846 5850 5854 5857 5859 5860 5862 5863 5862 5861 5863 5866 5870 5874 5877 5880 5881 5882 5883 5884 5886 5888 5889 5890 5892 5893 5895 5897 5899 5901 5902 5904 5907 5909 5911 5913 5914 5916 5918 5920 5922 5925 5927 5929 5931 5933 5935 5937 5939 5941 5943 5944 5946 5947 5948 5949 5949 5950 5951 5952
5778 5781 5785 5790 5793 5796 5800 5802 5805 5809 5812 5815 5817 5820 5822 5823 5824 5826 5829 5832 5835 5838 5842 5846 5844 5841 5844 5849 5852 5857 5859 5859 5860 5861 5861 5860 5861 5864 5868 5872 5876 5878 5879 5881 5882 5883 5885 5886 5887 5889 5891 5893 5894 5896 5898 5900 5901 5903 5905 5908 5909 5911 5912 5914 5916 5918 5921 5923 5926 5928 5930 5932 5935 5936 5938 5940 5942 5944 5945 5947 5948 5949 5949 5950 5951 5952
5771 5776 5783 5787 5789 5793 5798 5799 5803 5807 5809 5812 5814 5815 5817 5821 5824 5826 5829 5831 5834 5835 5837 5840 5840 5840 5845 5847 5851 5856 5857 5857 5858 5860 5861 5859 5859 5861 5863 5868 5873 5875 5877 5879 5880 5882 5884 5885 5886 5887 5889 5891 5893 5895 5897 5899 5901 5902 5904 5907 5908 5909 5910 5912 5914 5916 5919 5921 5924 5927 5929 5931 5933 5935 5937 5939 5941 5943 5944 5946 5947 5948 5949 5950 5950 5951
5766 5772 5779 5783 5784 5789 5794 5796 5799 5802 5805 5807 5809 5811 5816 5821 5823 5824 5826 5828 5830 5831 5833 5835 5837 5840 5843 5844 5847 5851 5854 5856 5856 5857 5859 5857 5856 5858 5859 5864 5869 5872 5874 5877 5879 5881 5882 5883 5884 5886 5888 5890 5892 5893 5896 5898 5899 5901 5903 5905 5907 5908 5909 5910 5912 5914 5916 5919 5922 5925 5928 5930 5932 5934 5936 5938 5940 5942 5944 5945 5946 5947 5948 5949 5950 5950
5762 5768 5773 5777 5781 5785 5789 5793 5795 5799 5802 5803 5805 5810 5815 5818 5819 5820 5822 5825 5827 5827 5830 5833 5834 5836 5838 5839 5843 5845 5847 5851 5853 5854 5857 5855 5853 5854 5857 5861 5867 5870 5873 5875 5877 5879 5880 5881 5883 5884 5886 5888 5890 5891 5893 5895 5897 5900 5902 5905 5906 5907 5907 5908 5910 5912 5915 5918 5921 5924 5926 5929 5931 5933 5935 5937 5939 5941 5942 5944 5945 5946 5947 5948 5949 5949
5758 5763 5767 5772 5777 5782 5786 5788 5790 5794 5798 5799 5803 5807 5811 5813 5814 5815 5817 5821 5823 5825 5828 5830 5831 5831 5833 5836 5840 5841 5842 5846 5848 5850 5853 5853 5851 5852 5855 5859 5864 5867 5870 5872 5874 5876 5878 5879 5881 5883 5885 5887 5888 5890 5891 5893 5896 5898 5901 5904 5905 5905 5905 5906 5908 5911 5913 5916 5919 5922 5925 5927 5930 5932 5934 5936 5937 5939 5941 5942 5943 5944 5945 5946 5947 5948
5751 5756 5762 5768 5773 5778 5780 5780 5783 5789 5793 5796 5799 5802 5806 5809 5810 5812 5816 5819 5822 5824 5826 5827 5828 5828 5830 5833 5837 5838 5840 5842 5844 5846 5849 5850 5850 5851 5854 5857 5860 5864 5867 5869 5872 5873 5875 5877 5879 5882 5884 5885 5887 5888 5891 5893 5895 5897 5900 5903 5904 5904 5904 5905 5906 5909 5912 5915 5918 5920 5923 5926 5928 5931 5932 5934 5936 5937 5939 5940 5941 5943 5944 5945 5945 5946
5745 5750 5756 5763 5768 5771 5772 5773 5778 5784 5788 5791 5793 5795 5799 5804 5807 5810 5814 5817 5820 5822 5824 5825 5826 5827 5830 5832 5833 5835 5838 5839 5841 5842 5845 5848 5849 5849 5853 5855 5858 5862 5865 5868 5870 5871 5873 5875 5877 5879 5882 5883 5886 5888 5891 5893 5895 5897 5900 5903 5904 5903 5902 5903 5905 5908 5911 5914 5916 5919 5922 5925 5927 5929 5931 5932 5934 5935 5937 5938 5940 5941 5942 5943 5944 5945
5738 5743 5750 5757 5762 5764 5766 5770 5776 5781 5785 5788 5791 5792 5796 5801 5804 5806 5810 5814 5818 5820 5822 5824 5826 5828 5830 5830 5830 5833 5836 5837 5839 5840 5842 5845 5847 5847 5850 5853 5856 5860 5863 5867 5869 5870 5872 5874 5875 5877 5880 5882 5885 5887 5889 5892 5894 5897 5900 5902 5903 5902 5901 5901 5903 5906 5909 5912 5915 5918 5920 5923 5925 5927 5929 5931 5932 5934 5935 5937 5938 5939 5941 5942 5942 5943
5725 5735 5744 5751 5755 5760 5767 5771 5773 5778 5783 5788 5790 5792 5795 5799 5801 5803 5806 5811 5815 5818 5821 5823 5825 5827 5828 5827 5828 5831 5833 5835 5837 5839 5840 5843 5844 5844 5847 5851 5854 5857 5862 5866 5868 5869 5871 5872 5874 5876 5878 5881 5883 5885 5887 5889 5892 5896 5899 5901 5902 5902 5900 5900 5902 5904 5907 5910 5913 5916 5919 5921 5924 5926 5928 5929 5931 5932 5934 5935 5936 5938 5939 5940 5941 5941
5720 5730 5740 5747 5752 5757 5764 5768 5770 5774 5779 5782 5785 5789 5791 5794 5798 5802 5805 5809 5813 5816 5819 5821 5823 5826 5826 5825 5827 5829 5831 5832 5835 5837 5838 5840 5842 5842 5845 5848 5851 5854 5859 5863 5866 5867 5869 5870 5872 5875 5877 5878 5880 5882 5885 5887 5890 5894 5897 5900 5901 5900 5899 5899 5901 5903 5906 5909 5912 5914 5917 5920 5922 5924 5926 5928 5929 5931 5932 5934 5935 5936 5937 5938 5939 5939
5716 5725 5733 5741 5747 5751 5757 5762 5763 5766 5770 5774 5778 5784 5788 5791 5795 5800 5803 5807 5809 5812 5816 5818 5821 5825 5826 5825 5826 5828 5829 5830 5834 5836 5836 5838 5840 5841 5843 5846 5849 5852 5856 5860 5862 5865 5867 5869 5872 5874 5875 5877 5879 5881 5884 5886 5889 5892 5895 5897 5898 5899 5899 5899 5900 5902 5904 5907 5910 5913 5916 5918 5920 5922 5924 5926 5928 5929 5931 5932 5933 5934 5935 5936 5937 5937
5709 5718 5726 5733 5739 5744 5749 5753 5755 5757 5762 5769 5774 5779 5785 5789 5792 5796 5800 5803 5805 5809 5813 5816 5819 5823 5825 5826 5826 5826 5827 5829 5832 5834 5835 5836 5837 5838 5841 5844 5847 5850 5853 5856 5860 5863 5865 5867 5870 5873 5874 5876 5878 5880 5883 5885 5887 5889 5892 5894 5896 5897 5898 5899 5900 5901 5903 5906 5909 5911 5914 5916 5919 5921 5923 5924 5926 5928 5929 5931 5932 5933 5933 5934 5935 5936
5705 5713 5721 5728 5734 5739 5745 5750 5754 5756 5759 5764 5770 5774 5780 5786 5790 5793 5797 5800 5803 5806 5810 5813 5817 5820 5822 5825 5825 5826 5828 5828 5827 5828 5832 5834 5835 5836 5839 5841 5845 5848 5850 5853 5857 5860 5862 5865 5868 5871 5873 5875 5876 5878 5880 5882 5884 5886 5889 5891 5893 5895 5897 5898 5899 5901 5903 5905 5907 5910 5912 5915 5917 5919 5921 5923 5924 5926 5928 5929 5930 5931 5932 5933 5933 5934
5699 5708 5716 5724 5729 5735 5742 5748 5751 5755 5758 5762 5767 5772 5776 5782 5788 5791 5793 5797 5801 5805 5807 5811 5814 5816 5819 5822 5823 5825 5827 5826 5823 5825 5829 5832 5834 5836 5838 5840 5844 5846 5847 5850 5855 5857 5860 5862 5865 5868 5870 5872 5873 5875 5877 5879 5881 5884 5887 5889 5890 5893 5895 5897 5898 5900 5901 5904 5906 5908 5911 5913 5915 5917 5919 5921 5923 5924 5926 5927 5928 5929 5930 5931 5932 5932
5693 5704 5712 5718 5724 5731 5737 5740 5744 5751 5756 5759 5765 5769 5773 5779 5784 5788 5792 5796 5800 5803 5806 5809 5811 5813 5816 5819 5820 5822 5824 5823 5822 5823 5827 5830 5833 5836 5838 5840 5842 5844 5846 5849 5852 5856 5858 5861 5863 5865 5867 5869 5871 5873 5875 5878 5880 5883 5885 5887 5889 5891 5893 5895 5897 5898 5900 5902 5905 5907 5909 5911 5913 5915 5917 5919 5921 5922 5923 5925 5926 5927 5928 5929 5930 5930
5690 5699 5705 5711 5718 5725 5730 5734 5739 5745 5751 5755 5761 5767 5772 5776 5781 5786 5791 5795 5799 5802 5806 5809 5810 5812 5814 5815 5816 5818 5819 5819 5820 5822 5825 5829 5832 5835 5837 5839 5841 5843 5845 5848 5851 5854 5857 5859 5861 5863 5865 5867 5869 5872 5874 5877 5880 5882 5885 5886 5888 5889 5891 5893 5895 5897 5899 5901 5903 5905 5907 5909 5911 5913 5915 5917 5918 5920 5921 5922 5923 5925 5926 5926 5927 5928
5684 5691 5698 5706 5712 5719 5727 5732 5733 5738 5745 5751 5756 5762 5767 5773 5778 5784 5789 5793 5797 5801 5804 5807 5808 5809 5810 5810 5812 5814 5815 5816 5817 5820 5824 5827 5829 5832 5835 5837 5839 5842 5844 5847 5849 5852 5855 5857 5859 5861 5864 5866 5868 5870 5873 5876 5879 5882 5884 5885 5887 5889 5891 5892 5894 5896 5898 5900 5901 5903 5905 5907 5909 5911 5912 5914 5916 5917 5918 5919 5921 5922 5923 5924 5924 5925
5679 5685 5693 5703 5711 5718 5724 5727 5727 5732 5740 5746 5752 5758 5764 5770 5775 5781 5785 5790 5796 5800 5802 5804 5805 5806 5805 5807 5809 5812 5813 5813 5814 5818 5822 5824 5826 5829 5832 5834 5838 5841 5843 5845 5847 5850 5853 5856 5859 5861 5862 5864 5866 5869 5872 5875 5878 5880 5883 5884 5886 5888 5890 5892 5894 5895 5897 5899 5900 5901 5903 5904 5906 5908 5909 5911 5913 5914 5915 5916 5918 5920 5921 5922 5922 5922
5678 5683 5689 5698 5708 5714 5719 5722 5725 5730 5736 5742 5750 5758 5765 5770 5774 5779 5784 5788 5794 5798 5800 5801 5803 5803 5803 5805 5808 5810 5811 5812 5813 5816 5819 5823 5825 5827 5830 5833 5836 5838 5840 5842 5845 5848 5851 5854 5857 5859 5860 5862 5865 5867 5870 5873 5876 5879 5882 5883 5885 5887 5889 5891 5893 5894 5896 5898 5899 5900 5901 5902 5903 5905 5907 5908 5909 5911 5912 5913 5915 5917 5918 5919 5919 5920
5674 5680 5685 5694 5703 5708 5713 5718 5722 5726 5733 5741 5750 5757 5763 5767 5771 5776 5782 5787 5793 5797 5798 5798 5799 5799 5800 5803 5805 5807 5809 5810 5812 5814 5817 5820 5823 5825 5827 5830 5832 5835 5837 5840 5843 5846 5848 5851 5854 5856 5858 5861 5863 5866 5868 5871 5874 5877 5880 5881 5883 5885 5887 5889 5891 5893 5894 5896 5897 5899 5900 5900 5901 5902 5904 5905 5906 5907 5909 5910 5912 5913 5914 5915 5917 5918
5671 5677 5683 5691 5697 5703 5710 5715 5718 5723 5731 5740 5748 5754 5757 5761 5766 5771 5774 5779 5784 5787 5789 5791 5793 5794 5796 5799 5801 5803 5806 5808 5809 5812 5815 5818 5820 5823 5825 5828 5830 5832 5835 5838 5841 5843 5846 5848 5851 5854 5856 5859 5861 5863 5866 5869 5871 5874 5877 5879 5881 5883 5885 5887 5889 5890 5892 5894 5895 5896 5898 5899 5899 5900 5901 5902 5903 5904 5906 5907 5908 5910 5911 5912 5914 5915
5667 5675 5682 5688 5694 5700 5707 5711 5714 5720 5730 5738 5743 5747 5750 5755 5761 5765 5767 5770 5772 5775 5779 5784 5788 5790 5792 5794 5796 5798 5801 5802 5803 5807 5811 5814 5818 5822 5824 5825 5827 5829 5832 5836 5839 5842 5844 5846 5849 5852 5855 5857 5859 5861 5864 5866 5869 5871 5874 5876 5878 5880 5882 5884 5886 5888 5890 5891 5893 5894 5895 5896 5897 5898 5898 5899 5900 5902 5903 5904 5906 5907 5908 5909 5911 5912
5665 5672 5679 5686 5691 5696 5701 5706 5710 5717 5726 5731 5734 5738 5743 5748 5752 5757 5761 5765 5769 5774 5777 5779 5782 5785 5787 5790 5792 5794 5795 5797 5800 5805 5809 5813 5817 5820 5822 5823 5825 5828 5830 5833 5836 5839 5842 5844 5847 5849 5852 5854 5856 5859 5862 5864 5866 5868 5871 5873 5875 5877 5879 5881 5884 5886 5888 5889 5891 5892 5893 5894 5895 5896 5896 5897 5898 5899 5900 5902 5903 5904 5905 5906 5908 5909
5662 5668 5675 5682 5687 5691 5697 5701 5706 5712 5718 5722 5726 5733 5739 5741 5744 5750 5755 5761 5767 5772 5773 5770 5772 5778 5783 5786 5789 5790 5791 5795 5799 5803 5807 5810 5814 5817 5819 5821 5823 5825 5827 5830 5833 5836 5838 5841 5843 5846 5849 5852 5854 5856 5859 5861 5863 5865 5868 5870 5872 5874 5876 5879 5881 5883 5885 5887 5888 5889 5891 5891 5892 5893 5894 5895 5896 5897 5898 5899 5900 5901 5902 5904 5905 5906
5657 5664 5672 5678 5682 5687 5692 5697 5701 5705 5711 5717 5724 5730 5733 5734 5739 5745 5750 5756 5761 5764 5765 5762 5764 5770 5776 5780 5783 5786 5789 5793 5796 5799 5802 5807 5810 5813 5815 5818 5820 5823 5825 5828 5830 5833 5835 5838 5840 5843 5846 5849 5851 5853 5855 5857 5860 5862 5864 5866 5869 5871 5873 5876 5878 5880 5881 5883 5885 5887 5888 5889 5890 5891 5892 5892 5894 5895 5896 5897 5898 5899 5900 5901 5902 5903
5651 5658 5667 5673 5678 5682 5688 5692 5694 5698 5705 5712 5719 5724 5727 5731 5737 5741 5743 5747 5752 5756 5758 5757 5759 5764 5769 5774 5777 5780 5784 5788 5791 5794 5798 5802 5805 5808 5812 5815 5818 5821 5823 5824 5827 5830 5833 5835 5836 5839 5842 5845 5847 5849 5851 5853 5856 5858 5860 5863 5865 5867 5869 5872 5874 5875 5877 5879 5882 5884 5885 5887 5888 5889 5890 5891 5892 5893 5894 5895 5896 5897 5898 5899 5900 5901
5646 5654 5661 5668 5674 5679 5683 5685 5687 5692 5700 5707 5713 5718 5722 5727 5733 5734 5735 5739 5744 5749 5752 5754 5757 5762 5764 5767 5771 5774 5778 5783 5787 5790 5794 5798 5802 5806 5810 5813 5816 5819 5820 5821 5824 5827 5830 5832 5834 5836 5838 5841 5844 5846 5848 5850 5852 5854 5857 5859 5861 5863 5865 5867 5869 5871 5873 5875 5878 5880 5882 5883 5885 5887 5888 5889 5889 5890 5891 5892 5893 5895 5896 5896 5897 5898
5642 5649 5656 5664 5671 5676 5679 5681 5683 5687 5694 5700 5706 5710 5714 5720 5725 5727 5729 5734 5738 5742 5747 5751 5755 5758 5759 5762 5766 5770 5775 5780 5785 5788 5792 5797 5802 5806 5808 5811 5814 5816 5817 5819 5822 5825 5828 5830 5831 5833 5835 5838 5840 5843 5845 5847 5849 5851 5853 5855 5857 5860 5861 5863 5865 5867 5869 5871 5874 5876 5879 5880 5882 5883 5885 5886 5887 5888 5888 5890 5891 5892 5893 5894 5894 5895
5639 5645 5652 5659 5664 5670 5675 5677 5680 5684 5690 5696 5701 5703 5707 5712 5716 5719 5724 5730 5733 5738 5744 5748 5750 5753 5756 5759 5764 5769 5773 5778 5782 5787 5792 5796 5801 5804 5807 5808 5810 5812 5814 5817 5820 5823 5825 5827 5829 5831 5833 5836 5838 5840 5842 5844 5846 5848 5850 5852 5855 5857 5858 5860 5862 5864 5866 5868 5870 5872 5875 5876 5878 5880 5881 5883 5884 5885 5886 5886 5887 5888 5890 5890 5891 5892
5638 5643 5648 5652 5657 5662 5667 5669 5674 5680 5686 5691 5695 5698 5700 5704 5708 5712 5719 5725 5731 5735 5739 5743 5746 5749 5753 5757 5762 5767 5771 5775 5781 5785 5789 5793 5797 5801 5803 5804 5806 5808 5810 5813 5816 5819 5821 5823 5826 5829 5831 5834 5835 5837 5839 5841 5843 5846 5848 5850 5852 5854 5855 5857 5859 5861 5863 5864 5866 5868 5870 5872 5874 5876 5877 5879 5881 5882 5883 5884 5884 5885 5886 5887 5888 5889
5636 5640 5646 5650 5653 5656 5660 5665 5670 5676 5680 5685 5689 5692 5694 5699 5705 5711 5716 5721 5726 5731 5735 5738 5742 5746 5750 5754 5758 5762 5767 5773 5779 5784 5787 5790 5793 5795 5798 5800 5801 5803 5806 5809 5812 5815 5817 5820 5823 5826 5828 5831 5833 5834 5836 5839 5841 5843 5845 5847 5849 5851 5852 5854 5856 5858 5860 5861 5862 5864 5866 5868 5870 5871 5873 5875 5876 5878 5879 5880 5881 5882 5883 5883 5885 5885
5633 5639 5645 5649 5651 5655 5661 5666 5669 5672 5675 5679 5684 5688 5692 5697 5701 5707 5713 5718 5721 5726 5731 5734 5738 5743 5747 5750 5754 5759 5763 5769 5775 5780 5783 5786 5788 5791 5794 5796 5797 5800 5802 5805 5808 5811 5813 5816 5819 5822 5825 5828 5829 5831 5833 5836 5838 5840 5842 5844 5846 5848 5849 5851 5853 5855 5857 5858 5860 5861 5863 5864 5866 5867 5869 5871 5872 5874 5875 5876 5877 5878 5879 5880 5880 5881
5632 5638 5642 5645 5650 5655 5659 5659 5661 5665 5669 5674 5681 5687 5691 5695 5699 5703 5708 5712 5716 5721 5726 5730 5735 5739 5743 5747 5751 5756 5760 5765 5769 5773 5777 5780 5783 5786 5790 5792 5795 5797 5799 5802 5805 5807 5809 5812 5816 5819 5822 5824 5826 5828 5830 5832 5835 5837 5839 5841 5843 5845 5846 5847 5849 5851 5853 5855 5856 5858 5859 5861 5862 5864 5865 5866 5868 5869 5871 5872 5872 5873 5874 5875 5876 5877
5630 5635 5638 5641 5645 5650 5652 5654 5658 5664 5669 5674 5679 5682 5683 5687 5693 5699 5704 5708 5713 5719 5723 5727 5731 5735 5739 5743 5748 5752 5757 5761 5764 5767 5772 5775 5778 5782 5786 5789 5791 5793 5795 5798 5801 5804 5806 5808 5812 5815 5817 5819 5822 5824 5826 5828 5831 5834 5836 5838 5840 5841 5843 5844 5846 5848 5850 5852 5853 5854 5856 5857 5858 5860 5861 5863 5864 5865 5866 5867 5868 5869 5869 5870 5871 5873
5628 5629 5631 5634 5639 5644 5649 5651 5653 5659 5665 5668 5670 5670 5671 5676 5683 5690 5696 5703 5710 5716 5721 5725 5728 5732 5736 5740 5744 5749 5753 5757 5760 5764 5768 5771 5774 5778 5781 5784 5787 5789 5791 5794 5797 5799 5802 5805 5807 5810 5813 5815 5818 5820 5822 5824 5827 5830 5832 5834 5836 5838 5840 5841 5843 5845 5847 5848 5849 5850 5852 5853 5854 5856 5857 5859 5859 5860 5861 5862 5863 5864 5865 5866 5867 5868
5623 5622 5623 5627 5632 5637 5640 5640 5641 5648 5656 5659 5659 5661 5665 5672 5677 5683 5690 5696 5702 5708 5714 5719 5724 5728 5732 5735 5739 5744 5748 5752 5755 5760 5763 5766 5769 5773 5776 5779 5782 5785 5787 5790 5793 5795 5798 5801 5803 5806 5809 5811 5813 5815 5818 5820 5823 5826 5829 5831 5833 5835 5836 5838 5839 5841 5843 5844 5846 5847 5848 5849 5850 5852 5853 5854 5855 5856 5857 5858 5858 5859 5860 5861 5862 5863
5618 5618 5620 5624 5627 5632 5635 5637 5640 5646 5652 5654 5655 5658 5663 5671 5678 5684 5689 5694 5698 5703 5708 5713 5718 5722 5726 5730 5734 5739 5743 5746 5750 5754 5758 5761 5764 5767 5770 5774 5777 5780 5783 5786 5789 5791 5794 5797 5799 5802 5805 5807 5809 5811 5813 5816 5819 5822 5825 5827 5828 5830 5831 5833 5835 5837 5838 5840 5841 5843 5844 5845 5846 5847 5848 5849 5850 5851 5852 5853 5853 5854 5855 5856 5857 5857